Change the Weather History Date:

Monday, January 20, 2014

  Actual Average Record
Temperature  
Mean Temperature 68 °F -  
Max Temperature 72 °F 74 °F - ()
Min Temperature 64 °F 59 °F - ()
Cooling Degree Days 3    
Growing Degree Days 18 (Base 50)    
Moisture  
Dew Point 62 °F    
Average Humidity 79    
Maximum Humidity 88    
Minimum Humidity 67    
Precipitation  
Precipitation 0.00 in - - ()
Sea Level Pressure  
Sea Level Pressure 30.08 in    
Wind  
Wind Speed 4 mph ()    
Max Wind Speed 12 mph    
Max Gust Speed -    
Visibility 7.4 miles    
Events      
T = Trace of Precipitation, MM = Missing Value Source: Averaged Metar Reports

Daily Weather History Graph

Daily Weather History Graph

Search for Another Location

Airport or City:

Trip Planner

Search our weather history database for the weather conditions in past years. The results will help you decide how hot, cold, wet, or windy it might be!

Date:

Astronomy

Jan. 20, 2014 Rise Set
Actual Time 5:39 AM SAST 7:42 PM SAST
Civil Twilight 5:11 AM SAST 8:10 PM SAST
Nautical Twilight 4:37 AM SAST 8:44 PM SAST
Astronomical Twilight 4:00 AM SAST 9:21 PM SAST
Moon 9:54 PM SAST (1/20) 9:23 AM SAST (1/20)
Length of Visible Light 14h 59m
Length of Day
14h 03m
Waning Gibbous, 85% of the Moon is Illuminated
Jan 20
Waning Gibbous
Jan 24
Last Quarter
Jan 30
New
Feb 6
First Quarter
Feb 15
Full

Hourly Weather History & Observations

Time (SAST) Temp. Dew Point Humidity Pressure Visibility Wind Dir Wind Speed Gust Speed Precip Events Conditions
12:00 AM 68.0 °F 62.6 °F 83% 30.06 in 6.2 mi West 3.5 mph - N/A   Mostly Cloudy
1:00 AM 68.0 °F 64.4 °F 88% 30.06 in 6.2 mi NW 2.3 mph - N/A   Overcast
2:00 AM 67 °F 63 °F 84% 30.06 in 6 mi 2.3 mph - -  
2:00 AM 68.0 °F 62.6 °F 83% 30.06 in 6.2 mi NNW 2.3 mph - N/A   Overcast
3:00 AM 66.2 °F 62.6 °F 88% 30.04 in 6.2 mi NW 2.3 mph - N/A   Partly Cloudy
4:00 AM 66.2 °F 62.6 °F 88% 30.04 in 6.2 mi WNW 2.3 mph - N/A   Mostly Cloudy
5:00 AM 66 °F 63 °F 86% 30.05 in 12 mi North 3.5 mph - -   Mostly Cloudy
5:00 AM 66.2 °F 62.6 °F 88% 30.04 in 6.2 mi North 3.5 mph - N/A   Mostly Cloudy
6:00 AM 64.4 °F 60.8 °F 88% 30.04 in 6.2 mi West 3.5 mph - N/A   Mostly Cloudy
7:00 AM 66.2 °F 62.6 °F 88% 30.06 in 6.2 mi NW 4.6 mph - N/A   Scattered Clouds
8:00 AM 71 °F 63 °F 70% 30.09 in 12 mi NW 3.5 mph - -   Partly Cloudy
8:00 AM 71.6 °F 62.6 °F 73% 30.06 in 6.2 mi NW 3.5 mph - N/A   Scattered Clouds
9:00 AM 71.6 °F 60.8 °F 69% 30.06 in 6.2 mi West 5.8 mph - N/A   Scattered Clouds
10:00 AM 71.6 °F 64.4 °F 78% 30.06 in 6.2 mi SW 8.1 mph - N/A   Mostly Cloudy
11:00 AM 72 °F 64 °F 71% 30.09 in 12 mi SSW 10.4 mph - -   Mostly Cloudy
11:00 AM 71.6 °F 64.4 °F 78% 30.06 in 6.2 mi SSW 10.4 mph - N/A   Mostly Cloudy
12:00 PM 71.6 °F 64.4 °F 78% 30.09 in 6.2 mi South 11.5 mph - N/A   Mostly Cloudy
1:00 PM 69.8 °F 62.6 °F 78% 30.09 in 6.2 mi SSW 11.5 mph - N/A   Mostly Cloudy
2:00 PM 71 °F 62 °F 67% 30.10 in 12 mi South 8.1 mph - -   Mostly Cloudy
2:00 PM 69.8 °F 62.6 °F 78% 30.09 in 6.2 mi South 8.1 mph - N/A   Mostly Cloudy
3:00 PM 69.8 °F 60.8 °F 73% 30.09 in 6.2 mi South 5.8 mph - N/A   Mostly Cloudy
4:00 PM 69.8 °F 62.6 °F 78% 30.09 in 6.2 mi South 8.1 mph - N/A   Mostly Cloudy
5:00 PM 69 °F 62 °F 71% 30.10 in 12 mi South 9.2 mph - -   Mostly Cloudy
5:00 PM 69.8 °F 62.6 °F 78% 30.09 in 6.2 mi South 9.2 mph - N/A   Mostly Cloudy
6:00 PM 69.8 °F 60.8 °F 73% 30.09 in 6.2 mi South 9.2 mph - N/A   Mostly Cloudy
7:00 PM 68.0 °F 60.8 °F 78% 30.12 in 6.2 mi South 8.1 mph - N/A   Scattered Clouds
8:00 PM 67 °F 60 °F 73% 30.16 in 12 mi South 2.3 mph - -   Mostly Cloudy
8:00 PM 66.2 °F 60.8 °F 83% 30.15 in 6.2 mi Variable 1.2 mph - N/A   Scattered Clouds
9:00 PM 66.2 °F 60.8 °F 83% 30.15 in 6.2 mi SSW 2.3 mph - N/A   Mostly Cloudy
10:00 PM 64.4 °F 60.8 °F 88% 30.15 in 6.2 mi WNW 3.5 mph - N/A   Partly Cloudy